Springfield, OH

9:32 PM EDT on September 19, 2017 (GMT -0400)
Springfield-Beckley Municipal

Weather History for KSGH - September, 2012

Change the Weather History Date:

Saturday, September 8, 2012

  Actual Average (KFFO) Record (KFFO)
Temperature  
Mean Temperature 64 °F -  
Max Temperature 72 °F 78 °F 95 °F (2002)
Min Temperature 57 °F 55 °F 44 °F (1998)
Growing Degree Days 14 (Base 50)    
Moisture  
Dew Point 64 °F    
Average Humidity 98    
Maximum Humidity 100    
Minimum Humidity 76    
Precipitation  
Precipitation 1.17 in - - ()
Sea Level Pressure  
Sea Level Pressure 29.75 in    
Wind  
Wind Speed 11 mph (WNW)    
Max Wind Speed 24 mph    
Max Gust Speed 34 mph    
Visibility 6 miles    
Events Thunderstorm    
Averages and records for this station are not official NWS values.
T = Trace of Precipitation, MM = Missing Value Source: NWS Daily Summary

Daily Weather History Graph

Daily Weather History Graph

Search for Another Location

Airport or City:

Trip Planner

Search our weather history database for the weather conditions in past years. The results will help you decide how hot, cold, wet, or windy it might be!

Date:

Astronomy

Sep. 08, 2012 Rise Set
Actual Time 7:10 AM EDT 7:54 PM EDT
Civil Twilight 6:42 AM EDT 8:21 PM EDT
Nautical Twilight 6:10 AM EDT 8:54 PM EDT
Astronomical Twilight 5:37 AM EDT 9:27 PM EDT
Moon No Moon Rise 2:50 PM EDT (9/8)
Length of Visible Light 13h 39m
Length of Day
12h 44m
Waning Gibbous, 49% of the Moon is Illuminated
Sep 8
Waning Gibbous
Sep 15
New
Sep 22
First Quarter
Sep 29
Full
Oct 8
Last Quarter

Hourly Weather History & Observations

Time (EDT) Temp. Dew Point Humidity Pressure Visibility Wind Dir Wind Speed Gust Speed Precip Events Conditions
12:14 AM 69.8 °F 69.8 °F 100% 29.67 in 2.5 mi East 5.8 mph - 0.04 in Thunderstorm Overcast
12:23 AM 69.8 °F 69.8 °F 100% 29.66 in 3.0 mi ESE 4.6 mph - 0.05 in Thunderstorm Overcast
12:40 AM 69.8 °F 69.8 °F 100% 29.69 in 1.8 mi WNW 24.2 mph 29.9 mph 0.12 in Thunderstorm Mostly Cloudy
12:44 AM 68.0 °F 68.0 °F 100% 29.69 in 1.2 mi WNW 16.1 mph 34.5 mph 0.16 in Thunderstorm Overcast
12:48 AM 68.0 °F 68.0 °F 100% 29.68 in 1.0 mi WNW 11.5 mph 34.5 mph 0.23 in Thunderstorm Overcast
12:56 AM 68.0 °F 68.0 °F 100% 29.68 in 1.0 mi West 15.0 mph 19.6 mph 0.32 in Thunderstorm Overcast
1:09 AM 68.0 °F 68.0 °F 100% 29.70 in 1.2 mi NW 15.0 mph - 0.15 in Thunderstorm Overcast
1:13 AM 66.2 °F 66.2 °F 100% 29.69 in 2.0 mi NW 15.0 mph - 0.16 in Thunderstorm Overcast
1:24 AM 66.2 °F 66.2 °F 100% 29.69 in 2.5 mi NNW 10.4 mph - 0.19 in Thunderstorm Overcast
1:41 AM 66.2 °F 66.2 °F 100% 29.70 in 2.5 mi NW 6.9 mph - 0.28 in   Overcast
1:56 AM 66.9 °F 66.9 °F 100% 29.67 in 4.0 mi WNW 6.9 mph - 0.33 in   Overcast
2:56 AM 65.8 °F 65.8 °F 100% 29.66 in 4.0 mi South 4.6 mph - 0.09 in   Overcast
3:04 AM 66.2 °F 66.2 °F 100% 29.68 in 4.0 mi South 5.8 mph - 0.01 in   Overcast
3:18 AM 66.2 °F 66.2 °F 100% 29.68 in 4.0 mi SSW 5.8 mph - 0.02 in   Overcast
3:36 AM 66.2 °F 66.2 °F 100% 29.70 in 5.0 mi SW 8.1 mph - 0.02 in   Overcast
3:56 AM 65.8 °F 65.8 °F 100% 29.66 in 9.0 mi SW 6.9 mph - 0.03 in   Mostly Cloudy
4:04 AM 66.2 °F 66.2 °F 100% 29.68 in 8.0 mi SSW 6.9 mph - N/A   Mostly Cloudy
4:24 AM 66.2 °F 66.2 °F 100% 29.67 in 9.0 mi SW 5.8 mph - N/A   Mostly Cloudy
4:56 AM 66.9 °F 66.9 °F 100% 29.64 in 9.0 mi SW 10.4 mph - N/A   Mostly Cloudy
5:13 AM 66.2 °F 66.2 °F 100% 29.66 in 10.0 mi WSW 11.5 mph - N/A   Mostly Cloudy
5:24 AM 66.2 °F 66.2 °F 100% 29.67 in 9.0 mi SW 9.2 mph - N/A   Mostly Cloudy
5:46 AM 64.4 °F 64.4 °F 100% 29.70 in 1.8 mi NW 21.9 mph 34.5 mph 0.06 in   Overcast
5:48 AM 62.6 °F 62.6 °F 100% 29.70 in 1.0 mi NNW 18.4 mph 34.5 mph 0.11 in   Overcast
5:56 AM 61.0 °F 61.0 °F 100% 29.68 in 0.8 mi NNW 18.4 mph 25.3 mph 0.14 in   Overcast
5:58 AM 60.8 °F 60.8 °F 100% 29.71 in 1.0 mi NW 16.1 mph 25.3 mph N/A   Overcast
6:09 AM 60.8 °F 60.8 °F 100% 29.71 in 1.2 mi NNW 15.0 mph - 0.03 in   Overcast
6:46 AM 60.8 °F 60.8 °F 100% 29.73 in 1.5 mi NNW 13.8 mph - 0.17 in   Mostly Cloudy
6:56 AM 59.9 °F 59.9 °F 100% 29.71 in 2.0 mi NNW 13.8 mph 21.9 mph 0.20 in   Mostly Cloudy
6:59 AM 60.8 °F 60.8 °F 100% 29.73 in 3.0 mi NNW 12.7 mph 21.9 mph N/A   Overcast
7:10 AM 60.8 °F 60.8 °F 100% 29.75 in 3.0 mi NNW 12.7 mph - 0.01 in   Overcast
7:17 AM 60.8 °F 60.8 °F 100% 29.74 in 2.5 mi NNW 13.8 mph - 0.02 in   Overcast
7:22 AM 60.8 °F 60.8 °F 100% 29.73 in 2.5 mi North 12.7 mph - 0.03 in   Overcast
7:30 AM 59.0 °F 59.0 °F 100% 29.73 in 3.0 mi North 10.4 mph - 0.04 in   Overcast
7:56 AM 59.9 °F 59.9 °F 100% 29.75 in 6.0 mi NNW 6.9 mph - 0.05 in   Overcast
8:02 AM 59.0 °F 59.0 °F 100% 29.77 in 4.0 mi NNW 9.2 mph - 0.01 in   Overcast
8:56 AM 59.0 °F - N/A% 29.78 in 9.0 mi NNW 13.8 mph - 0.01 in   Scattered Clouds
9:14 AM 57.2 °F 57.2 °F 100% 29.81 in 9.0 mi NNW 10.4 mph - N/A   Mostly Cloudy
9:39 AM 57.2 °F - N/A% 29.84 in 9.0 mi NW 9.2 mph - N/A   Scattered Clouds
9:56 AM 57.9 °F - N/A% 29.83 in 9.0 mi NW 10.4 mph - N/A   Partly Cloudy
10:56 AM 61.0 °F - N/A% 29.81 in 9.0 mi NW 9.2 mph - N/A   Clear
11:56 AM 64.9 °F 64.9 °F 100% 29.83 in 10.0 mi WNW 5.8 mph 18.4 mph N/A   Partly Cloudy
12:56 PM 70.0 °F 70.0 °F 100% 29.84 in 10.0 mi WNW 15.0 mph 19.6 mph N/A   Scattered Clouds
1:56 PM 68.9 °F 68.9 °F 100% 29.86 in 10.0 mi WNW 13.8 mph - N/A   Mostly Cloudy
2:56 PM 68.0 °F 68.0 °F 100% 29.86 in 10.0 mi NW 9.2 mph - N/A   Mostly Cloudy
3:56 PM 72.0 °F 68.0 °F 87% 29.85 in 9.0 mi WNW 11.5 mph - N/A   Partly Cloudy
4:56 PM 70.0 °F 65.8 °F 87% 29.84 in 9.0 mi WNW 9.2 mph - N/A   Partly Cloudy
5:56 PM 72.0 °F 63.9 °F 76% 29.85 in 10.0 mi West 10.4 mph - N/A   Clear
6:56 PM 68.9 °F 61.9 °F 78% 29.85 in 10.0 mi West 5.8 mph - N/A   Clear
7:56 PM 63.9 °F 61.0 °F 90% 29.86 in 9.0 mi West 5.8 mph - N/A   Scattered Clouds
8:56 PM 59.9 °F 59.9 °F 100% 29.88 in 10.0 mi West 4.6 mph - N/A   Mostly Cloudy
9:56 PM 63.0 °F 61.0 °F 93% 29.91 in 10.0 mi WNW 6.9 mph - N/A   Mostly Cloudy
10:56 PM 59.0 °F 57.9 °F 96% 29.92 in 10.0 mi WNW 5.8 mph - N/A   Clear